Regional Weather Roundup
Issued by NWS

Home | Current Version | Previous Version | Graphics & Text | Print | Product List | Glossary On
Versions: 1 2 3 4 5 6 7 8 9 10 11 12 13 14 15 16 17 18 19 20 21 22 23 24 25 26 27 28
000
ASUS45 KSLC 161410
RWRUT

UTAH REGIONAL WEATHER ROUNDUP
NATIONAL WEATHER SERVICE SALT LAKE CITY UT
800 AM MDT WED AUG 16 2017

UTZ001>011-023>025-161500-

NORTHERN UTAH

CITY           SKY/WX    TMP DP  RH WIND       PRES   REMARKS
BRIGHAM CITY   SUNNY     55  44  65 CALM      30.09R
DUGWAY         PTSUNNY   56  30  36 E5        30.06R
HILL AFB       SUNNY     58  35  41 E16       30.09R
LOGAN          SUNNY     53  48  83 CALM      30.10R
OGDEN          SUNNY     61  36  39 S6        30.07R
SALT LAKE CITY MOSUNNY   65  44  46 SE7       30.06R
TOOELE VALLEY  MOSUNNY   63  37  39 S7        30.07R
WENDOVER       CLOUDY    66  37  34 N3        30.06R
HEBER CITY     SUNNY     50  41  71 CALM      30.18R
WEST JORDAN    MOSUNNY   62  48  60 S10       30.09R

$$

UTZ011>015-024>027-161500-

CENTRAL/NORTHEAST UTAH

CITY           SKY/WX    TMP DP  RH WIND       PRES   REMARKS
PROVO AIRPORT  SUNNY     59  46  62 E5        30.11R
MOAB/CANYONLAN SUNNY     66  44  45 CALM      30.07R
DELTA          MOSUNNY   59  43  55 NE3       30.09R
PRICE          SUNNY     59  46  62 NE3       30.16R
RICHFIELD      SUNNY     54  46  76 CALM      30.17R
ROOSEVELT      SUNNY     52  48  87 CALM      30.19R
VERNAL         SUNNY     54  49  83 CALM      30.17R

$$

UTZ013>016-019>022-027-161500-

SOUTHERN UTAH

CITY           SKY/WX    TMP DP  RH WIND       PRES   REMARKS
BRYCE CANYON   SUNNY     47  36  65 W6        30.28R
CEDAR CITY     SUNNY     53  39  59 CALM      30.13R
MILFORD        SUNNY     56  39  53 S7        30.10R
ST GEORGE      SUNNY     68  36  30 CALM      30.00R
HANKSVILLE     SUNNY     59  32  36 CALM      30.11R
KANAB          SUNNY     55  36  47 N3        30.16R
BLANDING       SUNNY     61  36  38 CALM      30.23R

$$

REGIONAL REPORTS     COLORADO/ARIZONA

CITY           SKY/WX    TMP DP  RH WIND       PRES   REMARKS
CRAIG, CO      SUNNY     48  44  86 CALM      30.22R
GRAND JUNCTION SUNNY     63  47  55 SE6       30.10R
RIFLE, CO      PTSUNNY   57  43  59 SE3       30.16R
MONTROSE, CO   SUNNY     58  39  49 SE6       30.18R
CORTEZ, CO     SUNNY     53  39  59 NE3       30.18R
COLORADO CITY    N/A     55  45  67 CALM      30.13R
PAGE, AZ       SUNNY     69  31  24 CALM      30.06R
GRAND CANYON   SUNNY     47  30  51 CALM      30.23R
KINGMAN, AZ    SUNNY     71  38  29 SE7       29.99R
FLAGSTAFF, AZ  MOSUNNY   45  38  76 CALM      30.25R

$$

REGIONAL REPORTS    NEVADA/IDAHO/WYOMING

CITY           SKY/WX    TMP DP  RH WIND       PRES   REMARKS
LAS VEGAS, NV  SUNNY     79  41  25 W6        29.89R
ELY, NY        PTSUNNY   52  34  50 S7        30.17R
ELKO, NV       CLOUDY    58  36  43 CALM      30.08R
POCATELLO, ID  SUNNY     52  43  71 CALM      30.08R
BURLEY, ID     SUNNY     52  46  80 CALM      30.04R
FORT BRIDGER,    N/A     51  40  65 S8        30.26S
EVANSTON, WY   SUNNY     49  32  52 SE5       30.23R
ROCK SPRINGS,  SUNNY     51  46  83 S3        30.22R
KEMMERER, WY     N/A     46  39  76 N8        30.25R

$$




USA.gov is the U.S. government's official web portal to all federal, state and local government web resources and services.